Tracking 31027 objects as of 19-Jul-2025
HD Live streaming from Space Station
objects crossing your sky now

OBJECT E

Track OBJECT E now!
10-day predictions


NORAD ID: 57008
Int'l Code: 2023-085E
Perigee: 434.7 km
Apogee: 442.8 km
Inclination: 97.5 °
Period: 93.2 minutes
Semi major axis: 6809 km
RCS: Unknown
Launch date: June 15, 2023
Source: People's Republic of China (PRC)
Launch site: Taiyaun Space Center, China (TSC)
Your satellite tracking list
FENGYUN 1C DEB
Track 1 satellite(s)




NASA's NSSDC Master Catalog

Two Line Element Set (TLE):
1 57008U 23085E   25199.83817567  .00033857  00000-0  71939-3 0  9997
2 57008  97.4729 311.5963 0005916 115.2800 244.9062 15.44921817116261
Source of the keplerian elements: AFSPC